Tracking 29892 objects as of 21-Nov-2024
HD Live streaming from Space Station
objects crossing your sky now

CZ-2D DEB

Track CZ-2D DEB now!
10-day predictions


NORAD ID: 43402
Int'l Code: 2012-052B
Perigee: 628.1 km
Apogee: 939.1 km
Inclination: 98.1 °
Period: 100.4 minutes
Semi major axis: 7154 km
RCS: Unknown
Launch date: September 29, 2012
Source: People's Republic of China (PRC)
Launch site: Jiuquan Satellite Launch Center, China (JSC)

Note: This is SATELLITE DEBRIS
Your satellite tracking list
CZ-6A DEB
Track 1 satellite(s)




NASA's NSSDC Master Catalog

Two Line Element Set (TLE):
1 43402U 12052B   24324.57143229  .00003191  00000-0  87809-3 0  9990
2 43402  98.0576  84.7348 0217332 342.1835  17.1814 14.34580453572214
Source of the keplerian elements: AFSPC